KB4QOR Weather Reports


Display with metric or nautical units.
time (UTC)temp
F
wind
direction
speed
MPH
gust
MPH
rain 1hr
in
rain 24hr
in
rain mn
in
humidity
%
barometer
mb
20260510213036 75 48 1.0 4.0 0.00 0.00 0.00 66 1016.5
20260510211530 75 0 0.0 3.0 0.00 0.00 0.00 66 1016.5
20260510210031 74 22 1.0 4.0 0.00 0.00 0.00 66 1016.5
20260510204536 73 32 1.0 3.0 0.00 0.00 0.00 66 1016.3
20260510203032 74 0 0.0 3.0 0.00 0.00 0.00 66 1016.4
20260510201528 75 63 1.0 3.0 0.00 0.00 0.00 66 1016.4
20260510200458 75 28 0.0 2.0 0.00 0.00 0.00 66 1016.3
20260510194537 75 51 1.0 3.0 0.00 0.00 0.00 67 1016.3
20260510193035 75 77 1.0 6.0 0.00 0.00 0.00 67 1016.2
20260510191533 75 0 1.0 5.0 0.00 0.00 0.00 67 1016.2
20260510190045 75 360 1.0 5.0 0.00 0.00 0.00 67 1016.3
20260510184530 75 69 0.0 3.0 0.00 0.00 0.00 67 1016.2
20260510183028 75 34 1.0 3.0 0.00 0.00 0.00 67 1016.3
20260510181531 74 67 0.0 7.0 0.00 0.00 0.00 67 1016.5
20260510180031 72 88 2.0 9.0 0.00 0.00 0.00 68 1016.4
20260510174530 71 0 0.0 8.0 0.00 0.00 0.00 69 1016.6
20260510173035 70 80 1.0 5.0 0.00 0.00 0.00 70 1016.5
20260510171528 69 82 1.0 5.0 0.00 0.00 0.00 70 1016.4
20260510170028 68 0 1.0 5.0 0.00 0.00 0.00 70 1016.6
20260510164532 68 19 2.0 7.0 0.00 0.00 0.00 71 1016.5
20260510163038 67 87 1.0 5.0 0.00 0.00 0.00 72 1016.3
20260510161534 66 82 1.0 3.0 0.00 0.00 0.00 72 1016.1
20260510160028 66 0 1.0 6.0 0.00 0.00 0.00 72 1016.0
20260510154532 65 0 0.0 5.0 0.00 0.00 0.00 72 1015.9
20260510153027 65 267 1.0 5.0 0.00 0.00 0.00 70 1015.9
20260510151531 64 261 0.0 3.0 0.00 0.00 0.00 69 1015.9
20260510150036 63 68 0.0 6.0 0.00 0.00 0.00 68 1015.9
20260510144538 62 88 1.0 5.0 0.00 0.00 0.00 67 1015.7
20260510143036 61 269 1.0 4.0 0.00 0.00 0.00 66 1015.7
20260510141531 61 82 2.0 7.0 0.00 0.00 0.00 65 1015.7
20260510140030 60 265 1.0 5.0 0.00 0.00 0.00 64 1015.6
20260510134530 60 0 0.0 4.0 0.00 0.00 0.00 63 1015.4
20260510133030 59 271 1.0 4.0 0.00 0.00 0.00 63 1015.3
20260510131529 59 263 0.0 3.0 0.00 0.00 0.00 63 1015.2
20260510130028 58 265 0.0 3.0 0.00 0.00 0.00 63 1014.7
20260510124534 58 0 0.0 3.0 0.00 0.00 0.00 64 1014.7
20260510123031 58 264 1.0 4.0 0.00 0.00 0.00 65 1014.3
20260510121530 57 0 0.0 1.0 0.00 0.00 0.00 67 1014.1
20260510120027 57 0 0.0 1.0 0.00 0.00 0.00 68 1013.9
20260510114529 57 0 0.0 1.0 0.00 0.00 0.00 69 1013.8
20260510113028 57 0 0.0 0.0 0.00 0.00 0.00 70 1013.9
20260510111528 57 0 0.0 0.0 0.00 0.00 0.00 69 1013.8
20260510110030 56 0 0.0 1.0 0.00 0.00 0.00 69 1013.6
20260510104529 56 0 0.0 0.0 0.00 0.00 0.00 70 1013.4
20260510103030 56 0 0.0 1.0 0.00 0.00 0.00 70 1013.3
20260510101530 56 0 0.0 0.0 0.00 0.00 0.00 70 1013.1
20260510100046 57 0 0.0 0.0 0.00 0.00 0.00 70 1012.9
20260510094545 57 0 0.0 0.0 0.00 0.00 0.00 69 1012.9
20260510093028 57 0 0.0 0.0 0.00 0.00 0.00 69 1012.5
20260510091531 58 0 0.0 0.0 0.00 0.00 0.00 70 1012.5
20260510090040 58 0 0.0 0.0 0.00 0.00 0.00 70 1012.4
20260510084527 58 0 0.0 0.0 0.00 0.00 0.00 71 1012.4
20260510083031 58 0 0.0 0.0 0.00 0.00 0.00 72 1012.4
20260510081543 58 0 0.0 0.0 0.00 0.00 0.00 72 1012.3
20260510080032 58 0 0.0 0.0 0.00 0.00 0.00 72 1012.2
20260510074528 58 0 0.0 0.0 0.00 0.00 0.00 71 1011.8
20260510073031 59 0 0.0 0.0 0.00 0.00 0.00 71 1011.9
20260510071537 59 0 0.0 0.0 0.00 0.00 0.00 71 1011.8
20260510070037 60 0 0.0 0.0 0.00 0.00 0.00 71 1011.7
20260510064531 60 0 0.0 0.0 0.00 0.00 0.00 71 1011.8
20260510063029 61 0 0.0 0.0 0.00 0.00 0.00 71 1011.9
20260510061530 61 0 0.0 0.0 0.00 0.00 0.00 72 1012.1
20260510060028 61 0 0.0 0.0 0.00 0.00 0.00 72 1012.1
20260510054530 61 0 0.0 0.0 0.00 0.00 0.00 72 1012.0
20260510053028 61 0 0.0 0.0 0.00 0.00 0.00 72 1012.1
20260510051530 62 0 0.0 0.0 0.00 0.00 0.00 72 1012.1
20260510050028 62 0 0.0 0.0 0.00 0.00 0.00 72 1012.0
20260510044534 62 0 0.0 0.0 0.00 0.00 0.00 72 1012.1
20260510043028 62 0 0.0 1.0 0.00 0.00 0.00 72 1012.0
20260510041529 63 0 0.0 0.0 0.00 0.00 0.00 71 1012.1
20260510040032 63 0 0.0 0.0 0.00 0.00 0.00 71 1012.0
20260510034535 63 0 0.0 0.0 0.00 0.00 0.00 71 1012.2
20260510033028 64 0 0.0 0.0 0.00 0.00 0.00 71 1012.2
20260510031531 65 0 0.0 0.0 0.00 0.00 0.00 71 1012.3
20260510030030 65 0 0.0 0.0 0.00 0.00 0.00 71 1012.1
20260510024530 66 0 0.0 0.0 0.00 0.00 0.00 71 1012.1
20260510023029 67 0 0.0 0.0 0.00 0.00 0.00 70 1011.9
20260510021533 67 0 0.0 0.0 0.00 0.00 0.00 69 1011.8
20260510020028 68 0 0.0 0.0 0.00 0.00 0.00 69 1011.3
20260510014529 69 0 0.0 0.0 0.00 0.00 0.00 68 1011.1
20260510013029 70 0 0.0 0.0 0.00 0.00 0.00 68 1010.7
20260510011538 71 0 0.0 1.0 0.00 0.00 0.00 67 1010.3
20260510010029 73 0 0.0 0.0 0.00 0.00 0.00 66 1010.2
20260510004531 74 0 0.0 1.0 0.00 0.00 0.00 65 1010.0
20260510003031 74 0 0.0 1.0 0.00 0.00 0.00 63 1009.9
20260510001532 75 0 0.0 2.0 0.00 0.00 0.00 61 1009.6
20260510000054 76 0 0.0 3.0 0.00 0.00 0.00 60 1009.4
20260509234546 76 289 1.0 6.0 0.00 0.00 0.00 58 1009.4
20260509221532 78 132 2.0 6.0 0.00 0.00 0.00 57 1009.3
20260509220032 78 277 0.0 8.0 0.00 0.00 0.00 58 1009.3
20260509214532 78 79 2.0 7.0 0.00 0.00 0.00 58 1009.4